Time,TemperatureF,DewpointF,PressureIn,WindDirection,WindDirectionDegrees,WindSpeedMPH,WindSpeedGustMPH,Humidity,HourlyPrecipIn,Conditions,Clouds,dailyrainin,SoftwareType,DateUTC
2013-10-21 00:01:00,46.7,39.2,30.06,ESE,121,0.0,0.0,75,0.00,,CLR,0.00,VWS V14.01,2013-10-21 04:01:00,
2013-10-21 00:02:00,46.7,39.2,30.06,ESE,121,0.0,0.0,75,0.00,,CLR,0.00,VWS V14.01,2013-10-21 04:02:00,
2013-10-21 00:07:00,46.3,39.2,30.06,ESE,117,0.0,0.0,76,0.00,,CLR,0.00,VWS V14.01,2013-10-21 04:07:00,
2013-10-21 00:12:00,46.2,39.1,30.06,ESE,111,0.0,0.0,76,0.00,,CLR,0.00,VWS V14.01,2013-10-21 04:12:00,
2013-10-21 00:17:00,46.5,39.0,30.06,ESE,121,0.0,0.0,75,0.00,,CLR,0.00,VWS V14.01,2013-10-21 04:17:00,
2013-10-21 00:22:00,46.8,39.0,30.06,SE,128,0.0,0.0,74,0.00,,CLR,0.00,VWS V14.01,2013-10-21 04:22:00,
2013-10-21 00:27:00,46.9,39.1,30.06,ESE,115,0.0,0.0,74,0.00,,CLR,0.00,VWS V14.01,2013-10-21 04:27:00,
2013-10-21 00:33:00,46.8,39.0,30.06,ESE,113,0.0,0.0,74,0.00,,CLR,0.00,VWS V14.01,2013-10-21 04:33:00,
2013-10-21 00:38:00,46.8,39.0,30.06,SE,124,0.0,0.0,74,0.00,,CLR,0.00,VWS V14.01,2013-10-21 04:38:00,
2013-10-21 00:43:00,47.0,38.8,30.06,ESE,115,0.0,0.0,73,0.00,,CLR,0.00,VWS V14.01,2013-10-21 04:43:00,
2013-10-21 00:48:00,46.4,38.9,30.06,ESE,121,0.0,0.0,75,0.00,,CLR,0.00,VWS V14.01,2013-10-21 04:48:00,
2013-10-21 00:53:00,45.9,38.8,30.06,SE,128,0.0,0.0,76,0.00,,CLR,0.00,VWS V14.01,2013-10-21 04:53:00,
2013-10-21 00:58:00,45.7,38.9,30.06,ESE,117,0.0,0.0,77,0.00,,CLR,0.00,VWS V14.01,2013-10-21 04:58:00,
2013-10-21 01:03:00,45.4,39.0,30.06,ESE,118,0.0,0.0,78,0.00,,CLR,0.00,VWS V14.01,2013-10-21 05:03:00,
2013-10-21 01:08:00,45.4,39.0,30.06,ESE,118,0.0,0.0,78,0.00,,CLR,0.00,VWS V14.01,2013-10-21 05:08:00,
2013-10-21 01:13:00,45.5,39.0,30.07,ESE,106,0.0,0.0,78,0.00,,CLR,0.00,VWS V14.01,2013-10-21 05:13:00,
2013-10-21 01:18:00,45.4,39.0,30.07,ESE,120,0.0,0.0,78,0.00,,CLR,0.00,VWS V14.01,2013-10-21 05:18:00,
2013-10-21 01:24:00,45.1,39.0,30.07,SE,124,0.0,0.0,79,0.00,,CLR,0.00,VWS V14.01,2013-10-21 05:24:00,
2013-10-21 01:29:00,45.0,38.9,30.07,SE,128,0.0,0.0,79,0.00,,CLR,0.00,VWS V14.01,2013-10-21 05:29:00,
2013-10-21 01:34:00,45.1,39.0,30.07,ESE,110,0.0,0.0,79,0.00,,CLR,0.00,VWS V14.01,2013-10-21 05:34:00,
2013-10-21 01:39:00,45.5,38.7,30.07,ESE,115,0.0,0.0,77,0.00,,CLR,0.00,VWS V14.01,2013-10-21 05:39:00,
2013-10-21 01:44:00,45.8,38.7,30.07,ESE,110,0.0,0.0,76,0.00,,CLR,0.00,VWS V14.01,2013-10-21 05:44:00,
2013-10-21 01:49:00,45.9,38.8,30.07,ESE,120,0.0,0.0,76,0.00,,CLR,0.00,VWS V14.01,2013-10-21 05:49:00,
2013-10-21 01:54:00,46.0,38.9,30.07,ESE,122,0.0,0.0,76,0.00,,CLR,0.00,VWS V14.01,2013-10-21 05:54:00,
2013-10-21 01:59:00,45.9,38.4,30.07,ESE,113,0.0,0.0,75,0.00,,CLR,0.00,VWS V14.01,2013-10-21 05:59:00,
2013-10-21 02:04:00,46.0,38.5,30.07,ESE,114,0.0,0.0,75,0.00,,CLR,0.00,VWS V14.01,2013-10-21 06:04:00,
2013-10-21 02:09:00,46.0,38.5,30.07,ESE,121,0.0,0.0,75,0.00,,CLR,0.00,VWS V14.01,2013-10-21 06:09:00,
2013-10-21 02:14:00,45.8,38.3,30.07,ESE,108,0.0,0.0,75,0.00,,CLR,0.00,VWS V14.01,2013-10-21 06:14:00,
2013-10-21 02:20:00,45.8,38.7,30.08,ESE,108,0.0,0.0,76,0.00,,CLR,0.00,VWS V14.01,2013-10-21 06:20:00,
2013-10-21 02:25:00,45.5,38.4,30.08,ESE,108,0.0,0.0,76,0.00,,CLR,0.00,VWS V14.01,2013-10-21 06:25:00,
2013-10-21 02:30:00,45.3,38.2,30.08,ESE,108,0.0,0.0,76,0.00,,CLR,0.00,VWS V14.01,2013-10-21 06:30:00,
2013-10-21 02:35:00,45.6,38.5,30.08,ESE,108,0.0,0.0,76,0.00,,CLR,0.00,VWS V14.01,2013-10-21 06:35:00,
2013-10-21 02:40:00,45.6,38.5,30.08,ESE,106,0.0,0.0,76,0.00,,CLR,0.00,VWS V14.01,2013-10-21 06:40:00,
2013-10-21 02:45:00,45.5,38.4,30.08,ESE,113,0.0,0.0,76,0.00,,CLR,0.00,VWS V14.01,2013-10-21 06:45:00,
2013-10-21 02:50:00,45.3,38.5,30.08,ESE,108,0.0,0.0,77,0.00,,CLR,0.00,VWS V14.01,2013-10-21 06:50:00,
2013-10-21 02:55:00,45.3,38.5,30.08,ESE,122,0.0,0.0,77,0.00,,CLR,0.00,VWS V14.01,2013-10-21 06:55:00,
2013-10-21 03:00:00,45.0,38.2,30.08,SE,131,0.0,0.0,77,0.00,,CLR,0.00,VWS V14.01,2013-10-21 07:00:00,
2013-10-21 03:05:00,44.8,38.4,30.08,ESE,115,0.0,0.0,78,0.00,,CLR,0.00,VWS V14.01,2013-10-21 07:05:00,
2013-10-21 03:10:00,44.2,38.4,30.09,SE,138,0.0,0.0,80,0.00,,CLR,0.00,VWS V14.01,2013-10-21 07:10:00,
2013-10-21 03:15:00,44.2,38.4,30.08,SE,131,0.0,0.0,80,0.00,,CLR,0.00,VWS V14.01,2013-10-21 07:15:00,
2013-10-21 03:20:00,44.4,38.6,30.08,SE,138,0.0,0.0,80,0.00,,CLR,0.00,VWS V14.01,2013-10-21 07:20:00,
2013-10-21 03:25:00,44.5,38.7,30.08,SSE,154,0.0,0.0,80,0.00,,CLR,0.00,VWS V14.01,2013-10-21 07:25:00,
2013-10-21 03:30:00,44.5,38.7,30.09,SSE,152,0.0,0.0,80,0.00,,CLR,0.00,VWS V14.01,2013-10-21 07:30:00,
2013-10-21 03:35:00,44.5,38.7,30.09,SE,136,0.0,0.0,80,0.00,,CLR,0.00,VWS V14.01,2013-10-21 07:35:00,
2013-10-21 03:40:00,44.4,38.6,30.09,SE,136,0.0,0.0,80,0.00,,CLR,0.00,VWS V14.01,2013-10-21 07:40:00,
2013-10-21 03:45:00,44.5,38.7,30.09,ESE,108,0.0,0.0,80,0.00,,CLR,0.00,VWS V14.01,2013-10-21 07:45:00,
2013-10-21 03:50:00,44.5,38.7,30.09,ESE,104,0.0,0.0,80,0.00,,CLR,0.00,VWS V14.01,2013-10-21 07:50:00,
2013-10-21 03:55:00,44.4,38.6,30.09,East,101,0.0,0.0,80,0.00,,CLR,0.00,VWS V14.01,2013-10-21 07:55:00,
2013-10-21 04:00:00,44.5,38.7,30.09,East,82,0.0,0.0,80,0.00,,CLR,0.00,VWS V14.01,2013-10-21 08:00:00,
2013-10-21 04:05:00,44.5,38.7,30.09,East,82,0.0,0.0,80,0.00,,CLR,0.00,VWS V14.01,2013-10-21 08:05:00,
2013-10-21 04:10:00,45.0,38.9,30.09,East,88,0.0,0.0,79,0.00,,,0.00,VWS V14.01,2013-10-21 08:10:00,
2013-10-21 04:15:00,44.7,38.6,30.09,East,88,0.0,0.0,79,0.00,,,0.00,VWS V14.01,2013-10-21 08:15:00,
2013-10-21 04:20:00,43.1,37.7,30.09,East,93,0.0,0.0,81,0.00,,,0.00,VWS V14.01,2013-10-21 08:20:00,
2013-10-21 04:25:00,42.8,38.3,30.09,East,91,0.0,0.0,84,0.00,,,0.00,VWS V14.01,2013-10-21 08:25:00,
2013-10-21 04:30:00,42.7,37.9,30.09,East,92,0.0,0.0,83,0.00,,,0.00,VWS V14.01,2013-10-21 08:30:00,
2013-10-21 04:35:00,42.3,37.8,30.09,East,92,0.0,0.0,84,0.00,,,0.00,VWS V14.01,2013-10-21 08:35:00,
2013-10-21 04:40:00,41.3,37.7,30.09,East,91,0.0,0.0,87,0.00,,,0.00,VWS V14.01,2013-10-21 08:40:00,
2013-10-21 04:45:00,40.9,37.3,30.09,East,91,0.0,0.0,87,0.00,,,0.00,VWS V14.01,2013-10-21 08:45:00,
2013-10-21 04:50:00,40.6,37.0,30.09,East,92,0.0,0.0,87,0.00,,,0.00,VWS V14.01,2013-10-21 08:50:00,
2013-10-21 04:55:00,40.2,37.2,30.09,ESE,106,0.0,0.0,89,0.00,,,0.00,VWS V14.01,2013-10-21 08:55:00,
2013-10-21 05:00:00,39.6,36.9,30.09,ESE,105,0.0,0.0,90,0.00,,,0.00,VWS V14.01,2013-10-21 09:00:00,
2013-10-21 05:05:00,39.5,36.8,30.09,ESE,106,0.0,0.0,90,0.00,,,0.00,VWS V14.01,2013-10-21 09:05:00,
2013-10-21 05:10:00,39.4,37.0,30.09,ESE,106,0.0,0.0,91,0.00,,CLR,0.00,VWS V14.01,2013-10-21 09:10:00,
2013-10-21 05:15:00,39.6,37.2,30.09,ESE,105,0.0,0.0,91,0.00,,CLR,0.00,VWS V14.01,2013-10-21 09:15:00,
2013-10-21 05:20:00,39.7,37.0,30.09,ESE,106,0.0,0.0,90,0.00,,CLR,0.00,VWS V14.01,2013-10-21 09:20:00,
2013-10-21 05:25:00,39.7,37.0,30.10,ESE,106,0.0,0.0,90,0.00,,CLR,0.00,VWS V14.01,2013-10-21 09:25:00,
2013-10-21 05:30:00,39.5,36.8,30.10,ESE,106,0.0,0.0,90,0.00,,CLR,0.00,VWS V14.01,2013-10-21 09:30:00,
2013-10-21 05:35:00,39.4,37.0,30.10,East,101,0.0,0.0,91,0.00,,CLR,0.00,VWS V14.01,2013-10-21 09:35:00,
2013-10-21 05:40:00,39.4,37.0,30.10,East,101,0.0,0.0,91,0.00,,CLR,0.00,VWS V14.01,2013-10-21 09:40:00,
2013-10-21 05:45:00,39.5,37.1,30.10,ESE,102,0.0,0.0,91,0.00,,CLR,0.00,VWS V14.01,2013-10-21 09:45:00,
2013-10-21 05:50:00,39.7,37.3,30.10,East,101,0.0,0.0,91,0.00,,CLR,0.00,VWS V14.01,2013-10-21 09:50:00,
2013-10-21 05:56:00,39.5,37.1,30.10,East,101,0.0,0.0,91,0.00,,CLR,0.00,VWS V14.01,2013-10-21 09:56:00,
2013-10-21 06:01:00,39.2,36.8,30.11,East,101,0.0,0.0,91,0.00,,CLR,0.00,VWS V14.01,2013-10-21 10:01:00,
2013-10-21 06:06:00,38.8,36.4,30.10,East,101,0.0,0.0,91,0.00,,,0.00,VWS V14.01,2013-10-21 10:06:00,
2013-10-21 06:11:00,38.9,36.8,30.10,East,101,0.0,0.0,92,0.00,,,0.00,VWS V14.01,2013-10-21 10:11:00,
2013-10-21 06:16:00,38.8,36.7,30.10,East,101,0.0,0.0,92,0.00,,,0.00,VWS V14.01,2013-10-21 10:16:00,
2013-10-21 06:21:00,38.8,36.7,30.10,East,101,0.0,0.0,92,0.00,,,0.00,VWS V14.01,2013-10-21 10:21:00,
2013-10-21 06:26:00,38.7,36.6,30.10,East,101,0.0,0.0,92,0.00,,,0.00,VWS V14.01,2013-10-21 10:26:00,
2013-10-21 06:31:00,38.6,36.8,30.10,East,101,0.0,0.0,93,0.00,,,0.00,VWS V14.01,2013-10-21 10:31:00,
2013-10-21 06:36:00,38.4,36.3,30.10,East,101,0.0,0.0,92,0.00,,,0.00,VWS V14.01,2013-10-21 10:36:00,
2013-10-21 06:41:00,38.1,36.3,30.10,East,101,0.0,0.0,93,0.00,,,0.00,VWS V14.01,2013-10-21 10:41:00,
2013-10-21 06:46:00,38.2,36.6,30.10,East,101,0.0,0.0,94,0.00,,,0.00,VWS V14.01,2013-10-21 10:46:00,
2013-10-21 06:51:00,38.3,36.5,30.10,ESE,102,0.0,0.0,93,0.00,,,0.00,VWS V14.01,2013-10-21 10:51:00,
2013-10-21 06:56:00,38.5,36.9,30.10,East,101,0.0,0.0,94,0.00,,,0.00,VWS V14.01,2013-10-21 10:56:00,
2013-10-21 07:01:00,38.9,37.3,30.10,East,101,0.0,0.0,94,0.00,,,0.00,VWS V14.01,2013-10-21 11:01:00,
2013-10-21 07:07:00,39.2,37.3,30.10,East,101,0.0,0.0,93,0.00,,CLR,0.00,VWS V14.01,2013-10-21 11:07:00,
2013-10-21 07:12:00,39.2,37.1,30.11,East,101,0.0,0.0,92,0.00,,CLR,0.00,VWS V14.01,2013-10-21 11:12:00,
2013-10-21 07:17:00,39.0,36.9,30.11,East,101,0.0,0.0,92,0.00,,CLR,0.00,VWS V14.01,2013-10-21 11:17:00,
2013-10-21 07:22:00,38.7,36.6,30.11,East,101,0.0,0.0,92,0.00,,CLR,0.00,VWS V14.01,2013-10-21 11:22:00,
2013-10-21 07:27:00,38.4,36.3,30.11,East,101,0.0,0.0,92,0.00,,CLR,0.00,VWS V14.01,2013-10-21 11:27:00,
2013-10-21 07:32:00,38.1,36.0,30.11,East,101,0.0,0.0,92,0.00,,CLR,0.00,VWS V14.01,2013-10-21 11:32:00,
2013-10-21 07:37:00,37.8,36.0,30.11,East,101,0.0,0.0,93,0.00,,CLR,0.00,VWS V14.01,2013-10-21 11:37:00,
2013-10-21 07:42:00,37.7,35.9,30.12,East,101,0.0,0.0,93,0.00,,CLR,0.00,VWS V14.01,2013-10-21 11:42:00,
2013-10-21 07:47:00,38.2,36.6,30.12,East,101,0.0,0.0,94,0.00,,CLR,0.00,VWS V14.01,2013-10-21 11:47:00,
2013-10-21 07:52:00,38.8,37.2,30.12,East,101,0.0,0.0,94,0.00,,CLR,0.00,VWS V14.01,2013-10-21 11:52:00,
2013-10-21 07:57:00,39.4,37.8,30.12,East,101,0.0,0.0,94,0.00,,CLR,0.00,VWS V14.01,2013-10-21 11:57:00,
2013-10-21 08:02:00,40.1,38.2,30.12,East,101,0.0,0.0,93,0.00,,CLR,0.00,VWS V14.01,2013-10-21 12:02:00,
2013-10-21 08:08:00,40.6,38.5,30.12,East,98,0.0,0.0,92,0.00,,,0.00,VWS V14.01,2013-10-21 12:08:00,
2013-10-21 08:13:00,41.1,39.0,30.12,East,97,0.0,0.0,92,0.00,,,0.00,VWS V14.01,2013-10-21 12:13:00,
2013-10-21 08:18:00,42.8,40.9,30.12,East,98,0.0,0.0,93,0.00,,,0.00,VWS V14.01,2013-10-21 12:18:00,
2013-10-21 08:23:00,44.1,41.7,30.12,East,98,0.0,0.0,91,0.00,,,0.00,VWS V14.01,2013-10-21 12:23:00,
2013-10-21 08:28:00,44.9,41.6,30.12,East,98,0.0,0.0,88,0.00,,,0.00,VWS V14.01,2013-10-21 12:28:00,
2013-10-21 08:33:00,44.4,40.8,30.12,ESE,103,0.0,0.0,87,0.00,,,0.00,VWS V14.01,2013-10-21 12:33:00,
2013-10-21 08:38:00,44.6,40.7,30.12,ESE,103,0.0,0.0,86,0.00,,,0.00,VWS V14.01,2013-10-21 12:38:00,
2013-10-21 08:43:00,45.7,41.8,30.12,ESE,103,0.0,0.0,86,0.00,,,0.00,VWS V14.01,2013-10-21 12:43:00,
2013-10-21 08:48:00,47.2,42.0,30.13,ESE,103,0.0,0.0,82,0.00,,,0.00,VWS V14.01,2013-10-21 12:48:00,
2013-10-21 08:54:00,48.1,41.6,30.13,ESE,103,0.0,0.0,78,0.00,,,0.00,VWS V14.01,2013-10-21 12:54:00,
2013-10-21 08:58:00,49.1,42.2,30.13,ESE,103,0.0,0.0,77,0.00,,,0.00,VWS V14.01,2013-10-21 12:58:00,
2013-10-21 09:04:00,50.4,42.8,30.12,ESE,103,0.0,0.0,75,0.00,,,0.00,VWS V14.01,2013-10-21 13:04:00,
2013-10-21 09:09:00,50.9,43.3,30.12,ESE,112,0.0,0.0,75,0.00,,CLR,0.00,VWS V14.01,2013-10-21 13:09:00,
2013-10-21 09:14:00,51.3,44.0,30.12,ESE,110,0.0,0.0,76,0.00,,CLR,0.00,VWS V14.01,2013-10-21 13:14:00,
2013-10-21 09:19:00,52.1,44.4,30.12,ESE,110,0.0,0.0,75,0.00,,CLR,0.00,VWS V14.01,2013-10-21 13:19:00,
2013-10-21 09:24:00,52.8,44.8,30.12,ESE,110,0.0,0.0,74,0.00,,CLR,0.00,VWS V14.01,2013-10-21 13:24:00,
2013-10-21 09:29:00,53.7,44.5,30.12,ESE,110,0.0,0.0,71,0.00,,CLR,0.00,VWS V14.01,2013-10-21 13:29:00,
2013-10-21 09:34:00,53.8,42.3,30.12,SE,135,0.0,0.0,65,0.00,,CLR,0.00,VWS V14.01,2013-10-21 13:34:00,
2013-10-21 09:39:00,53.7,43.0,30.12,SSE,153,0.0,0.0,67,0.00,,CLR,0.00,VWS V14.01,2013-10-21 13:39:00,
2013-10-21 09:44:00,54.2,44.3,30.12,ESE,120,0.0,0.0,69,0.00,,CLR,0.00,VWS V14.01,2013-10-21 13:44:00,
2013-10-21 09:49:00,54.4,44.1,30.12,SE,126,0.0,0.0,68,0.00,,CLR,0.00,VWS V14.01,2013-10-21 13:49:00,
2013-10-21 09:54:00,54.3,42.4,30.12,ESE,119,0.0,0.0,64,0.00,,CLR,0.00,VWS V14.01,2013-10-21 13:54:00,
2013-10-21 09:59:00,54.0,42.5,30.12,East,101,0.0,0.0,65,0.00,,CLR,0.00,VWS V14.01,2013-10-21 13:59:00,
2013-10-21 10:04:00,54.4,44.5,30.12,SSE,151,0.0,0.0,69,0.00,,CLR,0.00,VWS V14.01,2013-10-21 14:04:00,
2013-10-21 10:10:00,55.2,42.8,30.12,SE,131,0.0,0.0,63,0.00,,CLR,0.00,VWS V14.01,2013-10-21 14:10:00,
2013-10-21 10:15:00,55.5,44.3,30.11,West,269,0.0,0.0,66,0.00,,CLR,0.00,VWS V14.01,2013-10-21 14:15:00,
2013-10-21 10:20:00,56.0,43.6,30.11,SE,131,0.0,0.0,63,0.00,,CLR,0.00,VWS V14.01,2013-10-21 14:20:00,
2013-10-21 10:25:00,56.3,43.0,30.11,South,173,0.0,0.0,61,0.00,,CLR,0.00,VWS V14.01,2013-10-21 14:25:00,
2013-10-21 10:30:00,56.9,44.0,30.11,WSW,241,0.0,0.0,62,0.00,,CLR,0.00,VWS V14.01,2013-10-21 14:30:00,
2013-10-21 10:35:00,56.9,43.6,30.11,South,188,0.0,0.0,61,0.00,,CLR,0.00,VWS V14.01,2013-10-21 14:35:00,
2013-10-21 10:40:00,57.9,44.1,30.11,SE,138,0.0,0.0,60,0.00,,CLR,0.00,VWS V14.01,2013-10-21 14:40:00,
2013-10-21 10:45:00,58.0,43.8,30.11,SE,134,0.0,4.0,59,0.00,,CLR,0.00,VWS V14.01,2013-10-21 14:45:00,
2013-10-21 10:50:00,58.0,43.3,30.11,SW,232,0.0,3.0,58,0.00,,CLR,0.00,VWS V14.01,2013-10-21 14:50:00,
2013-10-21 10:55:00,57.7,43.0,30.10,SSW,208,0.0,6.0,58,0.00,,CLR,0.00,VWS V14.01,2013-10-21 14:55:00,
2013-10-21 11:00:00,58.1,43.9,30.10,SW,224,3.0,4.0,59,0.00,,CLR,0.00,VWS V14.01,2013-10-21 15:00:00,
2013-10-21 11:05:00,57.7,43.5,30.10,SW,236,0.0,6.0,59,0.00,,CLR,0.00,VWS V14.01,2013-10-21 15:05:00,
2013-10-21 11:10:00,58.1,43.4,30.10,SW,218,0.0,5.0,58,0.00,,CLR,0.00,VWS V14.01,2013-10-21 15:10:00,
2013-10-21 11:15:00,58.4,43.7,30.10,SSW,197,1.0,4.0,58,0.00,,CLR,0.00,VWS V14.01,2013-10-21 15:15:00,
2013-10-21 11:20:00,58.3,44.0,30.10,East,100,0.0,6.0,59,0.00,,CLR,0.00,VWS V14.01,2013-10-21 15:20:00,
2013-10-21 11:25:00,58.8,44.1,30.10,WSW,249,0.0,5.0,58,0.00,,CLR,0.00,VWS V14.01,2013-10-21 15:25:00,
2013-10-21 11:30:00,59.0,44.7,30.09,SSE,164,0.0,5.0,59,0.00,,CLR,0.00,VWS V14.01,2013-10-21 15:30:00,
2013-10-21 11:35:00,59.4,44.6,30.09,SSE,165,3.0,3.0,58,0.00,,CLR,0.00,VWS V14.01,2013-10-21 15:35:00,
2013-10-21 11:40:00,59.3,44.5,30.09,SW,215,0.0,0.0,58,0.00,,CLR,0.00,VWS V14.01,2013-10-21 15:40:00,
2013-10-21 11:45:00,59.4,44.6,30.09,SSW,198,0.0,0.0,58,0.00,,CLR,0.00,VWS V14.01,2013-10-21 15:45:00,
2013-10-21 11:50:00,59.6,44.8,30.09,SE,146,6.0,6.0,58,0.00,,CLR,0.00,VWS V14.01,2013-10-21 15:50:00,
2013-10-21 11:55:00,59.7,44.9,30.09,SSE,153,4.0,4.0,58,0.00,,CLR,0.00,VWS V14.01,2013-10-21 15:55:00,
2013-10-21 12:00:00,59.9,45.1,30.09,SSW,211,0.0,5.0,58,0.00,,CLR,0.00,VWS V14.01,2013-10-21 16:00:00,
2013-10-21 12:05:00,59.8,45.0,30.09,SE,134,2.0,6.0,58,0.00,,CLR,0.00,VWS V14.01,2013-10-21 16:05:00,
2013-10-21 12:10:00,60.1,44.8,30.08,SSW,203,0.0,3.0,57,0.00,,CLR,0.00,VWS V14.01,2013-10-21 16:10:00,
2013-10-21 12:15:00,60.6,46.2,30.08,WSW,239,0.0,2.0,59,0.00,,CLR,0.00,VWS V14.01,2013-10-21 16:15:00,
2013-10-21 12:20:00,60.9,45.6,30.08,SE,142,0.0,5.0,57,0.00,,CLR,0.00,VWS V14.01,2013-10-21 16:20:00,
2013-10-21 12:25:00,61.1,45.8,30.08,SSE,154,2.0,8.0,57,0.00,,CLR,0.00,VWS V14.01,2013-10-21 16:25:00,
2013-10-21 12:31:00,60.9,45.1,30.08,WSW,242,6.0,8.0,56,0.00,,CLR,0.00,VWS V14.01,2013-10-21 16:31:00,
2013-10-21 12:36:00,61.3,46.4,30.07,SSE,152,2.0,3.0,58,0.00,,CLR,0.00,VWS V14.01,2013-10-21 16:36:00,
2013-10-21 12:41:00,61.7,46.8,30.07,SW,228,0.0,7.0,58,0.00,,CLR,0.00,VWS V14.01,2013-10-21 16:41:00,
2013-10-21 12:46:00,61.9,45.6,30.07,South,176,1.0,6.0,55,0.00,,CLR,0.00,VWS V14.01,2013-10-21 16:46:00,
2013-10-21 12:51:00,62.3,46.4,30.06,West,261,6.0,6.0,56,0.00,,CLR,0.00,VWS V14.01,2013-10-21 16:51:00,
2013-10-21 12:56:00,62.6,45.7,30.06,SW,227,2.0,7.0,54,0.00,,CLR,0.00,VWS V14.01,2013-10-21 16:56:00,
2013-10-21 13:01:00,62.7,44.8,30.06,ESE,110,1.0,11.0,52,0.00,,CLR,0.00,VWS V14.01,2013-10-21 17:01:00,
2013-10-21 13:06:00,62.8,44.9,30.05,South,175,2.0,6.0,52,0.00,,CLR,0.00,VWS V14.01,2013-10-21 17:06:00,
2013-10-21 13:11:00,63.2,46.8,30.05,SW,218,2.0,7.0,55,0.00,,CLR,0.00,VWS V14.01,2013-10-21 17:11:00,
2013-10-21 13:16:00,63.1,44.2,30.05,West,263,0.0,10.0,50,0.00,,CLR,0.00,VWS V14.01,2013-10-21 17:16:00,
2013-10-21 13:21:00,63.3,44.4,30.04,SE,143,11.0,13.0,50,0.00,,CLR,0.00,VWS V14.01,2013-10-21 17:21:00,
2013-10-21 13:26:00,63.9,44.4,30.04,ENE,72,11.0,12.0,49,0.00,,CLR,0.00,VWS V14.01,2013-10-21 17:26:00,
2013-10-21 13:32:00,63.9,43.3,30.03,West,270,3.0,15.0,47,0.00,,CLR,0.00,VWS V14.01,2013-10-21 17:32:00,
2013-10-21 13:37:00,63.7,43.1,30.03,South,169,1.0,9.0,47,0.00,,CLR,0.00,VWS V14.01,2013-10-21 17:37:00,
2013-10-21 13:42:00,64.0,44.5,30.03,SE,143,2.0,13.0,49,0.00,,CLR,0.00,VWS V14.01,2013-10-21 17:42:00,
2013-10-21 13:47:00,64.4,44.3,30.03,WSW,248,0.0,8.0,48,0.00,,CLR,0.00,VWS V14.01,2013-10-21 17:47:00,
2013-10-21 13:52:00,64.5,44.9,30.03,WSW,241,6.0,10.0,49,0.00,,CLR,0.00,VWS V14.01,2013-10-21 17:52:00,
2013-10-21 13:57:00,64.2,44.1,30.02,SSW,207,1.0,8.0,48,0.00,,CLR,0.00,VWS V14.01,2013-10-21 17:57:00,
2013-10-21 14:02:00,64.8,44.7,30.02,SE,141,5.0,8.0,48,0.00,,CLR,0.00,VWS V14.01,2013-10-21 18:02:00,
2013-10-21 14:07:00,64.8,44.1,30.02,SSW,207,0.0,13.0,47,0.00,,CLR,0.00,VWS V14.01,2013-10-21 18:07:00,
2013-10-21 14:12:00,64.1,42.3,30.02,SW,231,14.0,14.0,45,0.00,,CLR,0.00,VWS V14.01,2013-10-21 18:12:00,
2013-10-21 14:17:00,64.1,42.9,30.01,SSE,160,6.0,12.0,46,0.00,,CLR,0.00,VWS V14.01,2013-10-21 18:17:00,
2013-10-21 14:22:00,64.3,43.7,30.01,South,180,11.0,12.0,47,0.00,,CLR,0.00,VWS V14.01,2013-10-21 18:22:00,
2013-10-21 14:27:00,63.9,42.7,30.01,SSE,148,10.0,17.0,46,0.00,,CLR,0.00,VWS V14.01,2013-10-21 18:27:00,
2013-10-21 14:32:00,64.0,43.4,30.01,SE,134,8.0,10.0,47,0.00,,CLR,0.00,VWS V14.01,2013-10-21 18:32:00,
2013-10-21 14:38:00,64.1,43.5,30.00,South,187,2.0,9.0,47,0.00,,CLR,0.00,VWS V14.01,2013-10-21 18:38:00,
2013-10-21 14:43:00,64.7,45.1,30.00,SW,218,4.0,9.0,49,0.00,,CLR,0.00,VWS V14.01,2013-10-21 18:43:00,
2013-10-21 14:48:00,65.0,43.2,30.00,South,187,5.0,9.0,45,0.00,,CLR,0.00,VWS V14.01,2013-10-21 18:48:00,
2013-10-21 14:53:00,65.0,43.2,30.00,SW,234,7.0,10.0,45,0.00,,CLR,0.00,VWS V14.01,2013-10-21 18:53:00,
2013-10-21 14:58:00,64.8,43.0,30.00,SSW,200,8.0,12.0,45,0.00,,CLR,0.00,VWS V14.01,2013-10-21 18:58:00,
2013-10-21 15:03:00,64.7,43.5,30.00,SSE,161,9.0,12.0,46,0.00,,CLR,0.00,VWS V14.01,2013-10-21 19:03:00,
2013-10-21 15:08:00,64.2,42.4,30.00,SSW,205,4.0,11.0,45,0.00,,CLR,0.00,VWS V14.01,2013-10-21 19:08:00,
2013-10-21 15:13:00,64.8,44.1,30.00,SE,142,8.0,10.0,47,0.00,,CLR,0.00,VWS V14.01,2013-10-21 19:13:00,
2013-10-21 15:18:00,64.8,44.1,30.00,SE,139,11.0,12.0,47,0.00,,CLR,0.00,VWS V14.01,2013-10-21 19:18:00,
2013-10-21 15:23:00,64.6,43.4,30.00,SW,231,3.0,11.0,46,0.00,,CLR,0.00,VWS V14.01,2013-10-21 19:23:00,
2013-10-21 15:28:00,64.5,42.7,29.99,South,188,5.0,12.0,45,0.00,,CLR,0.00,VWS V14.01,2013-10-21 19:28:00,
2013-10-21 15:33:00,64.8,42.4,30.00,SE,139,3.0,7.0,44,0.00,,CLR,0.00,VWS V14.01,2013-10-21 19:33:00,
2013-10-21 15:39:00,64.6,43.4,30.00,South,174,9.0,14.0,46,0.00,,CLR,0.00,VWS V14.01,2013-10-21 19:39:00,
2013-10-21 15:44:00,64.5,43.3,29.99,South,181,4.0,20.0,46,0.00,,CLR,0.00,VWS V14.01,2013-10-21 19:44:00,
2013-10-21 15:49:00,64.9,42.5,29.99,South,191,5.0,11.0,44,0.00,,CLR,0.00,VWS V14.01,2013-10-21 19:49:00,
2013-10-21 15:54:00,64.6,42.2,29.99,SSE,161,4.0,11.0,44,0.00,,CLR,0.00,VWS V14.01,2013-10-21 19:54:00,
2013-10-21 15:59:00,64.7,42.9,29.99,SSE,156,3.0,9.0,45,0.00,,CLR,0.00,VWS V14.01,2013-10-21 19:59:00,
2013-10-21 16:04:00,64.6,42.8,29.98,SSE,149,6.0,10.0,45,0.00,,CLR,0.00,VWS V14.01,2013-10-21 20:04:00,
2013-10-21 16:09:00,63.9,42.2,29.98,SE,138,8.0,14.0,45,0.00,,CLR,0.00,VWS V14.01,2013-10-21 20:09:00,
2013-10-21 16:14:00,63.4,42.3,29.98,SSE,148,9.0,17.0,46,0.00,,CLR,0.00,VWS V14.01,2013-10-21 20:14:00,
2013-10-21 16:19:00,62.9,42.4,29.98,SE,134,12.0,16.0,47,0.00,,CLR,0.00,VWS V14.01,2013-10-21 20:19:00,
2013-10-21 16:24:00,62.7,42.8,29.98,SE,127,16.0,17.0,48,0.00,,CLR,0.00,VWS V14.01,2013-10-21 20:24:00,
2013-10-21 16:29:00,62.5,42.6,29.98,SE,135,13.0,17.0,48,0.00,,CLR,0.00,VWS V14.01,2013-10-21 20:29:00,
2013-10-21 16:35:00,62.6,42.1,29.98,SE,127,15.0,20.0,47,0.00,,CLR,0.00,VWS V14.01,2013-10-21 20:35:00,
2013-10-21 16:40:00,62.4,42.5,29.98,SE,141,11.0,18.0,48,0.00,,CLR,0.00,VWS V14.01,2013-10-21 20:40:00,
2013-10-21 16:45:00,62.3,42.4,29.98,SSE,158,9.0,12.0,48,0.00,,CLR,0.00,VWS V14.01,2013-10-21 20:45:00,
2013-10-21 16:50:00,62.1,42.7,29.98,SE,140,9.0,15.0,49,0.00,,CLR,0.00,VWS V14.01,2013-10-21 20:50:00,
2013-10-21 16:55:00,61.9,42.0,29.98,SSE,149,4.0,17.0,48,0.00,,CLR,0.00,VWS V14.01,2013-10-21 20:55:00,
2013-10-21 17:00:00,61.8,42.5,29.98,SE,129,11.0,15.0,49,0.00,,CLR,0.00,VWS V14.01,2013-10-21 21:00:00,
2013-10-21 17:05:00,61.7,41.8,29.98,SE,142,10.0,14.0,48,0.00,,CLR,0.00,VWS V14.01,2013-10-21 21:05:00,
2013-10-21 17:10:00,61.6,42.8,29.98,SE,145,6.0,14.0,50,0.00,,CLR,0.00,VWS V14.01,2013-10-21 21:10:00,
2013-10-21 17:15:00,61.6,42.3,29.98,SE,137,11.0,13.0,49,0.00,,CLR,0.00,VWS V14.01,2013-10-21 21:15:00,
2013-10-21 17:20:00,61.7,42.4,29.97,SSE,162,7.0,12.0,49,0.00,,CLR,0.00,VWS V14.01,2013-10-21 21:20:00,
2013-10-21 17:25:00,61.6,42.8,29.98,SE,144,8.0,9.0,50,0.00,,CLR,0.00,VWS V14.01,2013-10-21 21:25:00,
2013-10-21 17:30:00,61.2,42.4,29.98,SE,146,8.0,12.0,50,0.00,,CLR,0.00,VWS V14.01,2013-10-21 21:30:00,
2013-10-21 17:35:00,60.9,42.7,29.98,SE,141,7.0,11.0,51,0.00,,CLR,0.00,VWS V14.01,2013-10-21 21:35:00,
2013-10-21 17:40:00,60.5,42.3,29.98,SE,135,9.0,9.0,51,0.00,,CLR,0.00,VWS V14.01,2013-10-21 21:40:00,
2013-10-21 17:45:00,60.4,42.7,29.98,SE,139,6.0,9.0,52,0.00,,CLR,0.00,VWS V14.01,2013-10-21 21:45:00,
2013-10-21 17:50:00,60.0,42.3,29.98,SSE,153,3.0,8.0,52,0.00,,CLR,0.00,VWS V14.01,2013-10-21 21:50:00,
2013-10-21 17:55:00,59.8,42.2,29.98,SSE,148,4.0,7.0,52,0.00,,CLR,0.00,VWS V14.01,2013-10-21 21:55:00,
2013-10-21 18:00:00,59.5,41.9,29.98,SE,145,5.0,8.0,52,0.00,,CLR,0.00,VWS V14.01,2013-10-21 22:00:00,
2013-10-21 18:05:00,59.0,41.4,29.98,SE,143,5.0,7.0,52,0.00,,CLR,0.00,VWS V14.01,2013-10-21 22:05:00,
2013-10-21 18:10:00,58.6,41.5,29.98,SSE,149,2.0,10.0,53,0.00,,CLR,0.00,VWS V14.01,2013-10-21 22:10:00,
2013-10-21 18:15:00,58.0,41.5,29.98,SE,138,3.0,6.0,54,0.00,,CLR,0.00,VWS V14.01,2013-10-21 22:15:00,
2013-10-21 18:20:00,57.5,41.5,29.98,SE,135,5.0,7.0,55,0.00,,CLR,0.00,VWS V14.01,2013-10-21 22:20:00,
2013-10-21 18:25:00,57.2,41.2,29.98,SE,143,2.0,7.0,55,0.00,,CLR,0.00,VWS V14.01,2013-10-21 22:25:00,
2013-10-21 18:30:00,56.8,41.3,29.98,SSE,154,1.0,8.0,56,0.00,,CLR,0.00,VWS V14.01,2013-10-21 22:30:00,
2013-10-21 18:35:00,56.6,41.1,29.98,SE,141,0.0,5.0,56,0.00,,CLR,0.00,VWS V14.01,2013-10-21 22:35:00,
2013-10-21 18:40:00,56.4,40.9,29.99,SSE,163,3.0,4.0,56,0.00,,CLR,0.00,VWS V14.01,2013-10-21 22:40:00,
2013-10-21 18:45:00,56.3,40.8,29.99,SE,139,3.0,6.0,56,0.00,,CLR,0.00,VWS V14.01,2013-10-21 22:45:00,
2013-10-21 18:50:00,56.2,40.7,29.99,SSE,153,2.0,5.0,56,0.00,,CLR,0.00,VWS V14.01,2013-10-21 22:50:00,
2013-10-21 18:55:00,56.2,40.7,29.99,SSE,160,3.0,7.0,56,0.00,,CLR,0.00,VWS V14.01,2013-10-21 22:55:00,
2013-10-21 19:00:00,56.2,40.7,29.99,SE,139,1.0,6.0,56,0.00,,CLR,0.00,VWS V14.01,2013-10-21 23:00:00,
2013-10-21 19:05:00,56.1,40.2,29.99,SE,131,1.0,4.0,55,0.00,,CLR,0.00,VWS V14.01,2013-10-21 23:05:00,
2013-10-21 19:10:00,56.2,39.8,29.99,SSE,163,2.0,5.0,54,0.00,,CLR,0.00,VWS V14.01,2013-10-21 23:10:00,
2013-10-21 19:15:00,56.3,39.9,29.99,SE,135,0.0,6.0,54,0.00,,CLR,0.00,VWS V14.01,2013-10-21 23:15:00,
2013-10-21 19:20:00,56.3,39.4,29.99,SSE,160,4.0,6.0,53,0.00,,CLR,0.00,VWS V14.01,2013-10-21 23:20:00,
2013-10-21 19:25:00,56.1,39.7,29.99,SE,141,0.0,5.0,54,0.00,,CLR,0.00,VWS V14.01,2013-10-21 23:25:00,
2013-10-21 19:30:00,56.1,40.2,29.99,SE,142,6.0,8.0,55,0.00,,CLR,0.00,VWS V14.01,2013-10-21 23:30:00,
2013-10-21 19:35:00,56.2,40.7,29.99,SSE,165,6.0,8.0,56,0.00,,CLR,0.00,VWS V14.01,2013-10-21 23:35:00,
2013-10-21 19:40:00,55.8,40.8,29.99,SE,140,2.0,6.0,57,0.00,,CLR,0.00,VWS V14.01,2013-10-21 23:40:00,
2013-10-21 19:45:00,55.6,41.1,29.99,SSE,161,4.0,7.0,58,0.00,,CLR,0.00,VWS V14.01,2013-10-21 23:45:00,
2013-10-21 19:50:00,55.4,41.3,29.99,SE,141,2.0,5.0,59,0.00,,CLR,0.00,VWS V14.01,2013-10-21 23:50:00,
2013-10-21 19:55:00,55.3,41.7,29.99,SSE,148,2.0,5.0,60,0.00,,CLR,0.00,VWS V14.01,2013-10-21 23:55:00,
2013-10-21 20:00:00,55.1,41.5,29.99,SE,145,3.0,6.0,60,0.00,,CLR,0.00,VWS V14.01,2013-10-22 00:00:00,
2013-10-21 20:05:00,55.2,42.0,29.99,SSE,162,3.0,7.0,61,0.00,,CLR,0.00,VWS V14.01,2013-10-22 00:05:00,
2013-10-21 20:10:00,55.1,41.9,29.98,SSE,164,0.0,4.0,61,0.00,,CLR,0.00,VWS V14.01,2013-10-22 00:10:00,
2013-10-21 20:15:00,55.1,41.9,29.99,SE,139,2.0,8.0,61,0.00,,CLR,0.00,VWS V14.01,2013-10-22 00:15:00,
2013-10-21 20:20:00,55.0,41.8,29.98,SE,141,4.0,11.0,61,0.00,,CLR,0.00,VWS V14.01,2013-10-22 00:20:00,
2013-10-21 20:25:00,55.0,41.8,29.98,SE,134,4.0,9.0,61,0.00,,CLR,0.00,VWS V14.01,2013-10-22 00:25:00,
2013-10-21 20:30:00,54.8,41.6,29.98,SE,145,1.0,7.0,61,0.00,,CLR,0.00,VWS V14.01,2013-10-22 00:30:00,
2013-10-21 20:35:00,54.8,41.6,29.98,SSE,158,4.0,4.0,61,0.00,,CLR,0.00,VWS V14.01,2013-10-22 00:35:00,
2013-10-21 20:40:00,54.7,41.5,29.98,SW,226,3.0,6.0,61,0.00,,CLR,0.00,VWS V14.01,2013-10-22 00:40:00,
2013-10-21 20:45:00,54.3,41.6,29.98,SE,141,1.0,7.0,62,0.00,,CLR,0.00,VWS V14.01,2013-10-22 00:45:00,
2013-10-21 20:50:00,53.9,41.6,29.99,SSW,195,3.0,7.0,63,0.00,,CLR,0.00,VWS V14.01,2013-10-22 00:50:00,
2013-10-21 20:55:00,53.7,41.8,29.99,SE,137,1.0,1.0,64,0.00,,CLR,0.00,VWS V14.01,2013-10-22 00:55:00,
2013-10-21 21:00:00,53.3,41.5,29.98,SE,131,2.0,3.0,64,0.00,,CLR,0.00,VWS V14.01,2013-10-22 01:00:00,
2013-10-21 21:05:00,52.9,41.5,29.98,SE,134,1.0,4.0,65,0.00,,CLR,0.00,VWS V14.01,2013-10-22 01:05:00,
2013-10-21 21:10:00,52.4,41.8,29.98,SE,136,3.0,4.0,67,0.00,,CLR,0.00,VWS V14.01,2013-10-22 01:10:00,
2013-10-21 21:15:00,52.3,41.7,29.98,SE,140,4.0,4.0,67,0.00,,CLR,0.00,VWS V14.01,2013-10-22 01:15:00,
2013-10-21 21:20:00,52.0,41.8,29.98,SE,135,3.0,6.0,68,0.00,,CLR,0.00,VWS V14.01,2013-10-22 01:20:00,
2013-10-21 21:25:00,51.9,42.1,29.98,SSE,150,2.0,6.0,69,0.00,,CLR,0.00,VWS V14.01,2013-10-22 01:25:00,
2013-10-21 21:30:00,51.8,42.3,29.98,SSE,164,1.0,5.0,70,0.00,,CLR,0.00,VWS V14.01,2013-10-22 01:30:00,
2013-10-21 21:35:00,51.7,42.2,29.97,SSE,154,1.0,5.0,70,0.00,,CLR,0.00,VWS V14.01,2013-10-22 01:35:00,
2013-10-21 21:40:00,51.7,42.2,29.97,SSE,160,3.0,6.0,70,0.00,,CLR,0.00,VWS V14.01,2013-10-22 01:40:00,
2013-10-21 21:45:00,51.8,42.7,29.97,South,169,4.0,7.0,71,0.00,,CLR,0.00,VWS V14.01,2013-10-22 01:45:00,
2013-10-21 21:50:00,51.8,42.7,29.96,SSW,193,5.0,7.0,71,0.00,,CLR,0.00,VWS V14.01,2013-10-22 01:50:00,
2013-10-21 21:55:00,51.8,43.1,29.96,SE,139,4.0,8.0,72,0.00,,CLR,0.00,VWS V14.01,2013-10-22 01:55:00,
2013-10-21 22:00:00,52.1,43.4,29.96,SE,134,8.0,8.0,72,0.00,,CLR,0.00,VWS V14.01,2013-10-22 02:00:00,
2013-10-21 22:05:00,52.3,43.5,29.96,SSE,166,6.0,7.0,72,0.00,,CLR,0.00,VWS V14.01,2013-10-22 02:05:00,
2013-10-21 22:10:00,52.4,43.7,29.96,SE,142,7.0,10.0,72,0.00,,CLR,0.00,VWS V14.01,2013-10-22 02:10:00,
2013-10-21 22:15:00,52.4,44.0,29.96,SSE,150,6.0,9.0,73,0.00,,CLR,0.00,VWS V14.01,2013-10-22 02:15:00,
2013-10-21 22:20:00,52.4,44.0,29.96,South,169,6.0,7.0,73,0.00,,CLR,0.00,VWS V14.01,2013-10-22 02:20:00,
2013-10-21 22:25:00,52.2,43.8,29.95,SSE,157,6.0,8.0,73,0.00,,CLR,0.00,VWS V14.01,2013-10-22 02:25:00,
2013-10-21 22:30:00,52.2,44.2,29.95,SSE,148,11.0,11.0,74,0.00,,CLR,0.00,VWS V14.01,2013-10-22 02:30:00,
2013-10-21 22:35:00,52.1,44.4,29.95,South,176,4.0,6.0,75,0.00,,CLR,0.00,VWS V14.01,2013-10-22 02:35:00,
2013-10-21 22:41:00,52.0,44.3,29.95,SE,133,7.0,10.0,75,0.00,,CLR,0.00,VWS V14.01,2013-10-22 02:41:00,
2013-10-21 22:46:00,51.9,44.6,29.95,SE,134,7.0,11.0,76,0.00,,CLR,0.00,VWS V14.01,2013-10-22 02:46:00,
2013-10-21 22:51:00,51.7,44.7,29.95,SE,131,6.0,13.0,77,0.00,,CLR,0.00,VWS V14.01,2013-10-22 02:51:00,
2013-10-21 22:56:00,51.6,44.6,29.95,SE,134,7.0,11.0,77,0.00,,CLR,0.00,VWS V14.01,2013-10-22 02:56:00,
2013-10-21 23:01:00,51.4,44.8,29.95,SE,134,4.0,6.0,78,0.00,,CLR,0.00,VWS V14.01,2013-10-22 03:01:00,
2013-10-21 23:06:00,51.3,44.7,29.95,SE,129,4.0,7.0,78,0.00,,CLR,0.00,VWS V14.01,2013-10-22 03:06:00,
2013-10-21 23:11:00,51.2,44.9,29.94,SE,129,8.0,10.0,79,0.00,,CLR,0.00,VWS V14.01,2013-10-22 03:11:00,
2013-10-21 23:16:00,51.2,44.9,29.94,SE,135,6.0,9.0,79,0.00,,CLR,0.00,VWS V14.01,2013-10-22 03:16:00,
2013-10-21 23:21:00,51.2,45.2,29.94,South,170,4.0,8.0,80,0.00,,CLR,0.00,VWS V14.01,2013-10-22 03:21:00,
2013-10-21 23:26:00,51.3,45.3,29.94,SE,129,7.0,10.0,80,0.00,,CLR,0.00,VWS V14.01,2013-10-22 03:26:00,
2013-10-21 23:32:00,51.5,45.5,29.94,South,179,8.0,9.0,80,0.00,,CLR,0.00,VWS V14.01,2013-10-22 03:32:00,
2013-10-21 23:37:00,51.7,45.7,29.94,SSE,153,7.0,9.0,80,0.00,,CLR,0.00,VWS V14.01,2013-10-22 03:37:00,
2013-10-21 23:42:00,51.7,46.1,29.93,SE,130,6.0,10.0,81,0.00,,CLR,0.00,VWS V14.01,2013-10-22 03:42:00,
2013-10-21 23:47:00,51.7,46.1,29.93,SSE,147,8.0,11.0,81,0.00,,CLR,0.00,VWS V14.01,2013-10-22 03:47:00,
2013-10-21 23:52:00,51.6,46.0,29.93,ESE,121,3.0,10.0,81,0.00,,CLR,0.00,VWS V14.01,2013-10-22 03:52:00,
2013-10-21 23:57:00,51.5,46.2,29.93,SSE,148,7.0,10.0,82,0.00,,CLR,0.00,VWS V14.01,2013-10-22 03:57:00,